Hourly Data Report for July 25, 2021

CLYDE RIVER A
NUNAVUT
Current Station Operator: NAVCAN

70°29'09.000" N
68°31'01.000" W
26.50 m
2400804
71090
YCY

Download Data

Hourly Data (July 2021)
Hourly Data Report for July 25, 2021
TIME
LST
Temp Definition
°C
Dew Point Definition
°C
Rel Hum Definition
%
Precip. Amount Definition
mm

Wind Dir Definition
10's deg

Wind Spd Definition
km/h
Visibility Definition
km
Stn Press Definition
kPa
Hmdx Definition


Wind Chill Definition


Weather Definition


00:00 0.6 0.6 100 0.0 13 24 14.5 99.94     LegendNANA
01:00 0.7 0.7 100 0.0 11 26 16.1 99.92     LegendNANA
02:00 0.8 0.7 99 0.0 12 22 16.1 99.91     LegendNANA
03:00 0.8 0.7 99 0.0 12 17 11.3 99.88     LegendNANA
04:00 0.8 0.8 100 0.0 11 17 2.0 99.82     Fog
05:00 0.9 0.9 100 0.0 10 13 2.0 99.80     Fog
06:00 1.0 1.0 100 0.0 8 17 2.8 99.73     Rain, Fog
07:00 1.3 1.3 100 0.0 11 11 6.4 99.68     Rain, Fog
08:00 1.7 1.7 100 0.0 11 18 0.8 99.63     Rain, Fog
09:00 1.9 1.9 100 0.0 11 22 0.6 99.58     Fog
10:00 1.8 1.8 100 0.0 10 18 0.8 99.54     Rain, Fog
11:00 1.6 1.6 100 0.0 10 18 1.2 99.48     Rain, Fog
12:00 1.8 1.8 100 0.0 10 18 6.4 99.46     Rain, Fog
13:00 1.8 1.8 100 0.0 10 18 6.4 99.43     Rain, Fog
14:00 1.6 1.6 100 0.0 9 13 2.4 99.41     Fog
15:00 1.6 1.6 100 0.0 10 13 1.6 99.40     Fog
16:00 1.6 1.6 100 0.0 10 11 4.8 99.38     Rain, Fog
17:00 1.5 1.5 100 0.0 9 9 6.4 99.35     Fog
18:00 1.4 1.4 100 0.0 6 8 1.2 99.32     Fog
19:00 1.6 1.6 100 0.0 4 8 4.0 99.33     Fog
20:00 1.5 1.4 99 0.0 2 5 14.5 99.32     Rain
21:00 1.4 1.3 99 0.0 36 8 12.9 99.30     Rain
22:00 1.5 1.4 99 0.0 36 5 16.1 99.29     Rain
23:00 1.4 1.1 98 0.0 35 5 16.1 99.27     Rain

Notes on Data Quality.

Legend

  • E = Estimated
  • M = Missing
  • NA = Not Available*
  • [empty] = Indicates an unobserved value
Date modified: